Current Version              Previous Version:    01  02  03  04  05  06  07  08  09  10  11  12  13  14  15  16  17  18  19  20  21  22  23  24  25  26  27  28  29  30  
   31  32  33  34  35  36  37  38  39  40  41  42  43  44  45  46  47  48  49  50  51  52  53  54  55  56  57  58  59  60  

[Printable]
954
ASUS44 KFWD 230803
RWRTX
NORTH TEXAS HOURLY WEATHER ROUNDUP
NATIONAL WEATHER SERVICE FORT WORTH TX
300 AM CDT SAT AUG 23 2014

NOTE: "FAIR" INDICATES FEW OR NO CLOUDS BELOW 12,000 FEET WITH NO
SIGNIFICANT WEATHER AND/OR OBSTRUCTIONS TO VISIBILITY.

TXZ118-119-230900-
DALLAS/FORT WORTH METROPLEX

CITY           SKY/WX    TMP DP  RH WIND       PRES   REMARKS
DFW AIRPORT    CLEAR     84  68  58 S14       29.96S
DALLAS LOVE    CLEAR     84  68  58 S12       29.96S
FTW MEACHAM    CLEAR     84  67  56 S13       29.96S
DAL-EXECUTIVE  CLEAR     83  68  60 VRB7      29.97S
FTW-ALLIANCE   CLEAR     81  65  58 S8        29.96R
FTW-NAS-JRB    CLEAR     87  64  46 S13       30.00S
FTW-SPINKS     CLEAR     82  66  59 S7        29.98S
ARLINGTON      CLEAR     81  67  62 S7        29.97S
GRAND PRAIRIE  CLEAR     82  66  58 SE6       29.98S
ADDISON        CLEAR     85  66  52 S12       29.98F
MESQUITE       CLEAR     80  69  69 S8        29.98S
LANCASTER      CLEAR     81  68  64 S8        29.99R
$$

TXZ091>094-102>105-117-120-121-131>134-230900-
NORTH CENTRAL TEXAS

CITY           SKY/WX    TMP DP  RH WIND       PRES   REMARKS
SHRMAN/DENISON CLEAR     80  68  66 S10       29.97F
GAINESVILLE    CLEAR     77  67  71 CALM      29.98S
BOWIE          CLEAR     78  65  64 SE5       29.97S
BRIDGEPORT     CLEAR     84  61  45 S7        29.97F
DECATUR        CLEAR     82  64  56 S12       29.97S
DENTON         CLEAR     84  66  54 S14       29.96S
MCKINNEY       CLEAR     81  70  69 S10       29.97R
GREENVILLE     CLEAR     79  70  73 S6        29.98S
ROCKWALL       CLEAR     82  71  71 S14       29.97R
TERRELL        CLEAR     82  72  71 S8        29.98S
WAXAHACHIE     CLEAR     77  67  70 SE5       30.00R
CLEBURNE       CLEAR     82  68  61 S8        30.00R
GRANBURY       CLEAR     83  63  51 S9        29.98S
$$

TXZ083>090-098>101-113>116-127>130-139>142-154-155-230900-
WESTERN NORTH TEXAS

CITY           SKY/WX    TMP DP  RH WIND       PRES   REMARKS
WICHITA FALLS  CLEAR     76  56  49 S7        29.94S
WF-KICKAPOO    CLEAR     75  55  49 S3        29.95S
VERNON         CLEAR     74  48  39 S8        29.95S
ABILENE        CLEAR     80  57  45 S8        30.01R
ABILENE-DYESS  CLEAR     81  58  46 S13G21    30.00R
BRECKENRIDGE   CLEAR     81  55  41 S6        29.97S
GRAHAM         CLEAR     82  58  44 SE6       29.96S
MINERAL WELLS  CLEAR     79  62  56 S8        29.96S
STEPHENVILLE   CLEAR     76  60  56 S3        30.02S
COMANCHE       CLEAR     81  58  44 S14G20    30.00S
BROWNWOOD      PTCLDY    79  57  47 MISG      30.01S
COLEMAN        CLEAR     75  58  55 S9        30.02F
BRADY          CLEAR     75  57  53 S5        30.04R
$$

TXZ143>147-156>162-174-175-230900-
CENTRAL TEXAS

CITY           SKY/WX    TMP DP  RH WIND       PRES   REMARKS
WACO           CLEAR     81  68  64 S9        29.99R
WACO-MCGREGOR  CLEAR     81  64  57 S13       30.00S
HILLSBORO      CLEAR     82  67  60 S8        29.98F
CORSICANA      CLEAR     81  70  69 S8        30.00S
MEXIA          CLEAR     77  71  82 S3        29.99S
HEARNE           N/A     77  73  86 SE3       30.00S
CAMERON        CLEAR     80  74  81 S9        29.99S
TEMPLE         CLEAR     79  66  65 S13       30.00S
KILLEEN        CLEAR     79  66  65 S12       30.01S
KILLEEN-SKYLRK CLEAR     79  64  61 S8        30.01R
FORT HOOD      CLEAR     82  66  58 S8        30.01S
GATESVILLE     CLEAR     81  64  57 S7        30.02S
HAMILTON       CLEAR     79  59  50 S10       30.02S
LAMPASAS       CLEAR     78  61  55 S6        30.01S
$$

TXZ095>097-106>112-122>126-135>138-148>153-164>167-230900-
EAST TEXAS

CITY           SKY/WX    TMP DP  RH WIND       PRES   REMARKS
PARIS          CLEAR     75  66  73 S5        29.99S
SULPHUR SPRNGS CLEAR     80  70  71 S6        30.00F
CLARKSVILLE    MOCLDY    76  71  85 CALM      29.99S
MOUNT PLEASANT CLEAR     75  70  85 CALM      30.00S
GILMER         CLEAR     79  73  83 S3        30.01S
MINEOLA        CLEAR     79  72  78 S3        30.00S
TYLER          CLEAR     79  72  79 S9        30.00S
LONGVIEW       CLEAR     77  71  82 S8        30.00R
MARSHALL       CLEAR     76  73  88 CALM      30.02R
ATHENS         CLEAR     77  72  83 CALM      29.99S
PALESTINE      CLEAR     78  74  86 SE5       30.01S
JACKSONVILLE   CLEAR     76  73  89 S6        30.03S
HENDERSON      CLEAR     76  73  90 CALM      30.02S
NACOGDOCHES    CLEAR     75  72  88 S3        30.02S
LUFKIN         CLEAR     78  73  84 S3        30.00F
$$

SUPPLEMENTAL OBSERVATIONS (CENTRAL)

CITY           SKY/WX    TMP DP  RH WIND       PRES   REMARKS
$$

SUPPLEMENTAL OBSERVATIONS (WEST)

CITY           SKY/WX    TMP DP  RH WIND       PRES   REMARKS
$$

SUPPLEMENTAL OBSERVATIONS (EAST)

CITY           SKY/WX    TMP DP  RH WIND       PRES   REMARKS
$$

SUPPLEMENTAL OBSERVATIONS ARE A COLLECTION OF AUTOMATED INSTRUMENTS
THAT ARE MAINTAINED BY A VARIETY OF FEDERAL AND STATE AGENCIES.
CERTAIN ELEMENTS...SUCH AS HUMIDITY VALUES AND SUSTAINED WIND
SPEEDS...MAY BE APPROXIMATED.